SCP
1 1 1 1 1 0 0 0 0 0 0 0 0 0 1 0 0 0 1 1 1 1 1 1 1 1 1 1 1 0 0 0 0 0 1 1 0 0 0 0 0 0 0 0 0 0 0 0 0
0 1 1 1 1 0 0 0 0 0 1 1 0 1 1 1 1 1 1 1 1 1 1 1 1 1 1 1 1 1 0 0 0 0 0 1 0 0 0 0 0 0 0 0 0 0 0 0 0
0 0 1 1 1 1 0 0 0 1 1 1 1 1 1 1 1 1 1 2 2 1 1 1 1 1 1 1 1 1 1 1 0 0 0 0 0 0 0 0 0 0 0 0 0 0 0 0 0
1 0 0 1 1 1 1 0 1 1 1 1 1 1 1 2 2 2 2 2 2 1 1 1 1 1 1 1 1 1 1 1 1 0 0 0 0 0 0 0 0 0 0 0 0 0 0 0 0
0 0 0 0 1 1 1 1 1 1 1 1 2 2 2 2 3 3 2 2 2 2 1 1 1 2 2 2 2 1 1 1 1 1 0 0 0 0 0 0 0 0 0 0 0 0 0 0 0
0 0 0 0 0 0 0 1 1 1 2 2 2 2 2 3 4 3 2 2 2 2 2 2 2 2 2 2 2 1 1 1 1 1 0 0 0 0 0 0 0 0 0 0 0 0 0 0 0
0 0 0 0 0 0 0 1 1 2 2 2 2 2 2 3 4 4 3 3 2 2 2 2 2 2 2 2 2 1 1 1 1 0 0 0 0 0 0 0 0 0 0 0 0 0 0 0 0
0 0 0 0 0 0 0 1 1 1 2 2 2 2 3 4 5 5 4 3 2 2 3 3 3 2 2 2 2 1 1 1 0 0 0 0 0 0 0 0 0 0 0 0 0 0 0 0 0
0 0 0 0 0 0 0 1 1 1 2 2 2 3 3 5 6 6 5 4 3 3 3 3 3 3 2 2 2 1 1 1 1 0 0 0 0 0 0 0 0 0 0 0 0 0 0 0 0
0 0 0 0 0 0 1 1 1 2 2 2 2 3 4 5 7 7 6 5 4 3 3 3 3 3 3 2 2 1 1 1 1 1 0 0 0 0 0 0 0 0 0 0 0 0 0 0 0
0 0 0 0 0 0 1 1 1 2 2 2 2 3 3 4 6 6 5 5 5 4 3 3 3 3 3 2 2 1 1 1 1 1 0 0 0 0 0 0 0 0 0 0 0 0 0 0 0
0 0 0 0 0 0 1 1 1 2 2 2 2 3 3 4 4 5 5 5 5 4 4 3 3 3 2 2 2 2 1 1 1 1 0 1 1 0 0 0 0 0 0 0 0 0 0 0 0
0 0 0 0 0 0 1 1 2 3 3 3 2 3 3 3 3 4 5 5 5 5 4 4 3 3 3 3 2 2 2 1 1 0 0 1 1 1 1 0 0 0 0 0 0 0 0 0 0
0 0 0 0 0 0 1 2 3 4 4 4 3 3 3 3 3 4 5 5 5 5 4 4 4 4 3 3 3 2 2 2 1 1 1 1 1 1 1 1 0 0 0 0 0 0 0 0 0
0 0 0 0 0 0 1 2 3 4 5 5 4 4 4 4 3 4 5 6 6 5 5 4 4 4 4 4 4 3 3 2 1 1 1 1 1 1 1 1 0 0 0 0 0 0 0 0 0
0 0 0 0 0 0 1 2 3 4 5 6 6 5 5 4 4 4 5 6 6 5 4 4 4 4 5 5 4 3 3 2 1 1 1 1 1 1 1 1 0 0 0 0 0 0 0 0 0
0 0 0 0 0 0 1 2 3 4 5 5 6 7 7 6 5 5 6 6 6 6 5 4 5 5 5 5 4 3 2 2 1 1 1 1 1 1 1 0 0 0 0 0 0 0 0 0 0
0 0 0 0 0 1 1 2 3 4 4 5 6 7 8 7 7 8 7 7 7 6 6 7 7 6 5 4 3 2 2 1 1 1 1 1 1 1 1 0 0 0 0 0 0 0 0 0 0
0 0 0 0 0 1 1 2 3 3 4 5 6 7 7 7 8 9 9 8 7 6 7 8 7 5 4 3 2 1 1 1 1 1 1 1 1 1 1 0 0 0 0 0 0 0 0 0 0
0 0 0 0 0 1 1 2 2 3 4 6 7 7 6 6 8 9 9 8 7 6 6 6 5 4 3 2 2 1 1 1 1 1 1 1 1 1 1 1 0 0 0 0 0 0 0 0 0
0 0 0 0 0 0 1 1 1 2 4 6 6 6 5 6 7 8 8 7 6 5 5 5 4 3 2 2 1 1 1 1 1 1 1 1 1 1 1 1 0 0 0 0 0 0 0 0 0
0 0 0 0 0 0 0 1 1 2 3 5 5 5 5 6 7 8 7 6 5 5 5 5 4 3 2 2 1 1 1 1 1 1 1 1 1 1 1 0 0 0 0 0 0 0 0 0 0
0 0 0 0 0 0 0 0 1 1 2 3 4 5 6 7 7 7 6 5 5 5 5 6 5 4 3 2 2 1 1 1 1 1 1 0 0 0 0 0 0 0 0 0 0 0 0 0 0
0 0 0 0 0 0 0 0 0 1 2 3 4 5 7 8 7 6 5 5 5 6 6 6 6 5 4 3 2 2 1 1 1 1 1 0 0 0 0 0 0 0 0 0 0 0 0 0 0
0 0 0 0 0 0 0 0 0 1 2 4 6 7 7 6 5 4 4 4 5 5 6 6 6 6 5 4 3 2 1 1 1 1 1 0 0 0 0 1 1 1 1 1 1 1 1 0 0
0 0 0 0 0 0 0 0 1 2 4 6 7 7 5 4 3 3 3 3 3 3 4 4 5 5 5 4 3 2 2 1 1 1 1 0 0 0 0 1 1 1 1 1 1 1 1 0 0
0 0 0 0 0 0 0 0 1 2 5 6 5 5 4 3 3 2 2 2 2 2 2 3 3 4 4 3 2 2 1 1 1 1 0 0 0 0 0 1 1 1 1 2 1 1 1 0 0
0 0 0 0 0 0 0 0 1 2 4 5 4 3 3 3 2 2 2 2 2 2 2 2 2 2 2 2 2 1 1 1 1 0 0 0 0 0 1 1 1 1 1 1 1 1 1 0 0
0 0 0 0 0 0 0 0 1 2 3 4 4 3 3 3 3 2 2 2 2 2 2 2 2 2 1 1 1 1 1 1 1 0 0 0 0 0 1 1 1 1 1 1 1 1 0 0 0
0 0 0 0 0 0 0 0 1 2 2 3 3 3 3 4 4 3 2 2 2 2 2 2 2 1 1 1 1 1 1 1 0 0 0 0 0 0 0 1 1 1 1 1 1 1 1 0 0
Wind_Speed
6 3 1 1 4 5 2 2 6 9 7 7 10 10 8 6 5 6 5 14 17 15 12 15 17 18 18 18 17 17 16 16 16 16 15 15 15 15 15 15 14 14 14 14 14 14 15 15 15
2 2 1 4 6 3 1 3 7 9 10 11 11 11 9 8 9 10 8 14 17 15 11 13 18 18 18 17 17 16 16 16 15 15 15 14 14 14 14 14 14 14 14 14 14 14 14 14 14
2 1 3 4 2 1 0 3 7 9 9 9 7 6 6 7 10 7 10 17 15 13 10 14 20 19 18 17 17 16 16 15 15 14 14 14 14 13 14 14 14 14 14 14 13 13 13 13 12
1 3 4 4 2 3 3 2 5 7 7 7 8 7 5 5 8 12 18 18 16 12 10 14 19 19 18 17 17 16 16 15 15 14 14 13 13 13 13 13 13 13 13 13 13 12 12 11 11
3 4 5 3 3 3 2 4 6 7 5 7 9 7 4 4 17 21 18 17 16 12 9 12 19 19 18 17 17 16 15 15 14 14 13 13 13 13 13 13 13 13 13 12 12 11 11 10 10
3 4 3 2 4 4 1 6 9 10 9 8 8 7 3 8 18 18 17 15 15 14 10 11 18 19 18 17 17 16 16 15 14 14 13 13 13 12 12 13 13 13 12 11 11 10 10 9 8
3 3 2 3 3 3 1 5 9 9 8 6 7 7 5 8 13 16 15 14 13 13 11 9 10 13 17 17 16 16 15 15 14 13 13 13 13 12 12 12 12 12 11 11 10 9 9 8 7
4 4 0 2 3 3 3 3 7 8 7 7 7 9 8 10 13 14 14 13 12 11 10 9 8 7 8 10 16 16 15 14 14 13 13 13 13 12 12 10 11 11 11 10 9 8 8 6 6
3 4 3 4 4 4 3 5 3 4 7 4 4 6 11 17 18 16 14 11 11 11 8 8 8 7 7 7 12 13 14 14 13 11 13 10 5 5 6 9 11 11 10 9 8 7 6 5 4
4 3 8 7 5 4 3 6 6 5 6 5 6 9 16 17 17 17 17 15 13 12 10 9 9 8 8 8 6 4 5 6 5 5 6 4 4 3 5 8 10 10 9 8 7 5 4 3 2
4 6 7 7 6 4 1 3 4 8 4 7 12 16 17 15 15 16 16 15 15 13 12 10 10 9 8 5 6 3 3 3 4 5 5 4 3 3 3 2 4 4 6 3 3 2 1 1 2
3 7 7 6 5 2 2 3 4 5 7 11 16 18 17 15 14 16 16 14 13 13 12 11 10 9 8 7 6 5 4 3 3 4 5 4 3 3 3 2 2 2 1 2 1 1 1 0 1
4 7 7 6 4 2 1 2 4 4 9 13 15 14 13 13 12 11 13 13 13 13 12 12 10 9 8 7 5 6 5 5 4 4 4 5 4 4 3 2 2 2 2 2 2 2 1 1 2
5 6 7 4 4 1 3 1 4 5 12 16 16 12 10 10 10 10 12 12 12 12 12 10 10 10 9 7 5 5 5 5 4 4 5 6 5 5 4 3 3 2 2 3 3 3 2 2 2
4 6 9 5 3 2 4 3 3 9 14 14 14 13 11 9 9 11 13 13 13 12 11 11 10 9 9 8 7 6 5 5 4 4 5 6 6 6 5 4 3 3 3 3 2 2 2 2 2
6 5 5 8 3 4 5 3 4 9 14 13 12 12 11 9 9 10 11 11 11 12 11 12 11 10 8 7 5 5 5 5 4 4 4 6 6 6 5 4 3 3 2 3 3 2 2 1 2
4 3 6 10 5 3 5 5 6 9 13 12 11 11 11 9 7 8 10 11 12 12 12 10 9 10 8 7 5 4 4 5 4 4 4 5 6 6 5 3 3 3 3 2 3 2 2 2 2
4 4 6 7 5 2 3 4 5 9 12 12 11 10 10 10 9 9 10 10 10 11 11 10 9 9 8 5 4 3 3 3 4 4 4 6 5 6 5 3 3 3 3 2 2 2 2 2 2
6 8 10 10 5 1 2 4 5 7 9 10 10 10 9 8 7 8 9 10 10 9 10 10 9 8 7 5 4 4 4 4 4 4 6 6 5 5 5 4 4 3 3 3 4 3 2 1 2
9 9 9 8 5 2 2 2 2 5 8 11 13 12 11 8 7 8 8 9 10 10 9 9 9 9 8 5 4 4 4 4 4 3 4 6 6 5 5 5 4 4 3 3 3 3 2 1 2
9 7 6 5 4 5 4 4 3 1 4 6 9 11 11 13 12 10 9 9 9 9 10 10 9 9 8 6 4 4 3 3 2 3 3 4 5 5 5 5 4 4 4 3 3 3 4 2 1
8 8 5 3 2 3 2 1 6 2 2 5 8 9 10 11 11 10 10 10 10 9 9 9 8 8 7 7 7 7 6 4 4 4 3 4 4 5 5 5 5 4 3 3 3 3 3 4 2
9 7 3 2 1 2 4 2 6 1 1 5 8 10 10 11 12 11 10 9 9 8 8 8 8 7 7 7 8 7 5 4 3 3 4 4 3 4 5 5 5 4 3 4 3 3 3 3 3
5 3 7 6 6 2 3 2 5 4 5 5 7 10 10 11 10 9 7 6 5 6 7 7 8 7 7 7 7 8 7 6 6 5 5 4 3 3 4 5 5 4 4 4 4 4 4 3 3
2 6 5 6 5 5 3 2 8 8 7 8 10 10 11 11 10 9 9 8 7 7 7 7 8 7 7 7 7 7 7 7 8 6 5 5 3 3 5 5 5 4 4 5 4 4 3 4 3
4 10 8 5 5 5 3 3 7 5 3 6 8 10 11 10 9 10 10 9 8 8 8 8 8 7 7 7 6 6 6 5 5 5 5 5 4 4 5 5 5 5 5 5 4 3 3 3 3
5 5 10 8 2 1 4 4 6 4 6 6 8 9 10 10 10 10 9 8 7 8 8 8 8 7 7 7 7 6 6 5 5 5 4 4 4 4 5 5 5 5 5 5 4 3 3 3 2
9 8 7 6 4 2 3 3 4 2 4 6 7 9 8 8 8 8 8 8 7 7 6 6 7 7 7 7 6 6 5 6 5 4 4 4 5 4 5 5 5 5 4 4 4 3 3 3 2
4 4 6 6 6 6 3 6 6 9 9 10 9 8 9 9 9 8 7 7 7 6 7 6 6 6 6 6 6 5 5 5 5 4 5 4 4 4 4 5 4 4 4 4 4 3 3 4 2
8 8 9 6 5 5 5 7 4 6 7 8 9 8 9 8 8 8 8 8 7 7 7 6 6 6 6 6 5 5 4 4 4 3 3 4 4 3 4 4 4 4 4 3 4 4 3 4 3
Wind_Direction
249 240 172 84 47 39 38 69 93 82 64 65 77 82 81 65 105 130 128 135 133 136 139 139 136 133 130 128 125 122 119 117 114 112 111 110 110 111 113 114 116 117 117 116 115 114 114 114 114
263 249 58 48 61 39 26 94 89 95 117 106 87 85 77 69 87 107 119 136 134 135 137 139 138 136 134 132 130 128 126 123 120 118 116 115 115 116 117 117 118 118 118 118 118 117 117 116 116
264 61 67 56 62 174 262 97 107 107 112 105 93 74 79 107 113 117 138 137 131 132 135 143 141 139 138 136 135 133 131 129 126 123 122 121 120 120 119 119 121 120 120 120 119 118 118 117 116
35 43 50 55 299 237 207 157 104 98 77 74 94 73 67 114 126 132 137 137 132 132 134 143 142 142 141 139 138 137 135 132 128 127 126 125 124 122 122 123 123 123 122 121 121 120 118 116 115
63 66 44 358 284 271 214 154 125 106 96 80 89 87 49 52 119 131 138 138 135 135 136 142 143 144 143 142 141 140 137 134 132 131 129 127 126 125 124 125 126 126 125 124 123 121 118 116 113
59 70 65 313 295 295 238 137 112 104 115 112 103 98 70 118 128 137 139 138 138 138 137 142 146 146 146 145 144 143 141 137 137 135 133 132 131 130 129 129 130 130 129 127 126 123 118 112 108
112 96 162 251 285 303 199 146 121 125 129 137 125 104 117 137 138 138 136 133 135 139 139 141 146 147 148 147 146 145 143 141 140 139 138 137 137 136 135 134 135 135 133 132 130 126 121 114 106
142 103 243 251 241 263 213 131 121 130 127 127 124 130 155 157 138 133 131 131 135 140 143 142 140 141 142 146 148 147 146 145 145 144 143 142 142 141 140 138 140 139 139 137 135 132 126 117 107
117 88 238 234 224 239 191 117 109 92 111 110 118 143 151 143 136 134 132 133 140 144 147 146 143 141 139 145 152 150 149 151 149 148 147 139 127 130 136 146 147 145 144 143 141 137 132 119 102
121 167 229 227 222 225 187 136 143 111 108 101 90 109 133 140 142 145 148 151 153 156 157 155 151 149 150 154 141 142 144 144 139 138 137 129 133 145 147 156 153 152 150 148 149 147 137 115 89
177 206 242 259 251 227 187 143 145 129 145 162 150 145 148 147 149 154 157 159 161 160 161 162 161 159 160 146 144 142 135 138 143 148 146 143 141 142 133 138 148 148 150 141 150 144 121 114 122
241 251 248 256 259 238 171 143 132 151 175 164 153 151 153 155 161 163 164 163 160 162 165 166 165 162 160 150 153 153 151 155 159 161 156 145 141 141 143 141 144 144 139 148 145 153 181 152 136
267 267 271 262 279 257 142 119 125 129 128 135 138 143 153 160 161 161 161 162 161 166 168 169 165 160 158 152 159 160 164 167 165 161 158 153 153 156 157 157 163 172 161 166 179 190 186 170 154
275 296 295 275 284 248 127 99 105 142 135 138 142 149 161 165 163 156 156 161 169 169 167 165 162 162 158 157 161 163 169 168 163 163 165 162 161 158 157 161 173 184 181 181 186 187 170 164 151
318 323 317 291 265 232 95 15 157 156 140 142 150 156 164 174 170 166 167 167 169 168 165 164 161 161 160 160 165 164 168 165 165 166 166 163 159 157 157 156 170 186 175 165 164 169 142 147 153
346 347 312 291 271 241 125 216 203 157 147 149 155 162 171 180 181 170 163 165 165 163 162 165 164 163 161 157 158 157 161 162 167 161 162 162 159 159 153 154 169 179 163 150 149 147 128 137 148
349 311 286 292 275 209 145 197 197 161 152 156 162 165 169 171 176 168 163 165 164 161 159 161 155 161 161 157 154 150 153 161 163 157 161 164 163 158 151 156 167 166 146 144 158 140 141 151 169
256 276 286 285 290 150 160 188 179 163 158 160 162 161 167 174 177 166 159 158 157 157 156 156 156 159 156 153 142 130 136 158 159 161 167 164 164 158 148 154 166 157 138 137 142 139 136 154 164
260 280 285 285 288 98 168 170 184 174 161 161 162 158 168 173 166 157 154 153 151 154 155 159 159 159 156 156 151 144 154 164 165 172 170 166 165 159 152 160 162 154 154 163 156 136 133 139 125
262 271 280 291 307 49 134 171 188 179 177 170 166 162 165 155 147 150 151 153 156 159 159 161 164 164 167 165 159 155 152 159 167 170 168 171 170 168 166 160 164 159 149 148 150 138 136 136 133
267 251 259 276 324 19 71 358 338 204 151 158 163 161 162 161 159 158 158 158 159 164 166 169 169 167 169 161 141 126 111 102 130 162 169 180 175 173 164 165 163 163 155 162 168 156 146 157 185
261 258 258 290 19 316 62 314 292 232 170 170 163 162 164 163 160 161 161 163 169 171 169 168 169 168 166 160 157 156 160 168 182 175 175 178 174 172 167 165 166 163 162 172 180 162 152 147 164
233 251 276 309 90 4 2 101 285 324 183 200 176 171 169 168 164 165 166 170 168 167 167 167 166 168 167 165 164 162 165 168 162 155 164 173 179 175 171 169 163 165 170 175 171 153 154 156 162
229 26 22 40 62 354 274 150 272 246 213 192 176 168 164 164 162 159 157 158 161 164 166 164 164 170 169 166 166 170 169 163 158 166 172 175 181 181 180 173 170 173 175 181 180 169 164 167 158
112 83 28 357 8 259 272 167 243 245 212 174 168 165 161 161 159 156 159 166 171 171 170 166 165 169 170 169 173 175 173 168 172 176 180 177 182 189 193 180 177 179 183 186 180 171 174 171 167
185 139 156 193 221 277 324 231 260 261 180 145 148 151 151 153 160 165 169 172 175 174 170 168 170 170 172 175 178 176 172 171 175 180 180 186 192 197 188 180 183 187 185 185 175 172 180 172 177
172 174 167 140 172 297 297 299 323 16 87 116 133 141 152 159 164 168 168 167 170 171 172 173 172 172 178 180 178 173 171 171 177 183 184 189 194 196 188 185 186 188 183 179 166 172 180 166 174
170 161 106 120 154 231 292 275 234 222 139 141 149 155 155 157 161 164 164 163 164 167 165 166 173 179 182 179 178 175 176 177 178 181 190 196 194 188 179 185 182 181 181 177 170 172 176 172 185
172 150 129 135 154 155 210 262 225 185 168 159 163 161 155 160 164 163 165 165 161 159 160 164 172 173 175 173 171 168 171 174 173 183 194 189 181 174 172 177 177 176 177 174 169 178 176 175 184
179 181 150 155 208 162 165 258 261 175 163 157 153 148 153 162 161 158 163 163 163 162 164 168 169 172 171 164 159 161 161 160 163 172 183 176 172 166 167 164 168 175 173 172 172 180 174 167 166